Date_and_time,latitude,longitude,wind_speed,RelWindDirFrom,WindDirFrom,air_pressure,air_temperature,relative_humidity,Temp,platform_speed_wrt_ground,air_pressure_at_mean_sea_level,platform_orientation
2019-09-09 00:00,50.63046,-96.980785,11.3,13.5,146,992.13,16.9,53,17.21,0.0,1018.46,360.0
2019-09-09 00:10,50.63046,-96.98078,11.1,13.7,147,992.13,16.9,53,17.21,0.0,1018.45,360.0
2019-09-09 00:20,50.63046,-96.9807766666667,11.3,14.1,148,992.08,16.7,55,17.21,0.0,1018.41,360.0
2019-09-09 00:30,50.6304583333333,-96.9807766666667,11.3,13.7,148,992.05,16.7,55,17.21,0.0,1018.37,360.0
2019-09-09 00:40,50.6304583333333,-96.980775,10.8,13.9,150,992.04,16.7,56,17.19,0.0,1018.38,360.0
2019-09-09 00:50,50.6304583333333,-96.980775,9.5,12.1,151,992.13,16.5,57,17.21,0.0,1018.47,360.0
2019-09-09 01:00,50.6304583333333,-96.9807766666667,10.0,12.7,161,992.25,16.4,59,17.22,0.0,1018.61,36.6
2019-09-09 01:10,50.6304583333333,-96.980775,9.3,11.5,166,992.28,16.2,58,17.23,0.0,1018.65,36.6
2019-09-09 01:20,50.6304583333333,-96.980775,8.3,9.9,169,992.27,15.8,58,17.23,0.0,1018.65,36.6
2019-09-09 01:30,50.6304583333333,-96.980775,7.4,9.0,172,992.28,15.5,59,17.21,0.0,1018.68,36.6
2019-09-09 01:40,50.6304583333333,-96.980775,7.1,9.2,173,992.28,15.2,61,17.19,0.0,1018.69,36.6
2019-09-09 01:50,50.6304583333333,-96.980775,7.1,8.8,174,992.26,15.1,62,17.18,0.0,1018.69,36.6
2019-09-09 02:00,50.6304933333333,-96.9807966666667,7.2,8.7,177,992.28,14.8,62,17.19,0.0,1018.72,335.6
2019-09-09 02:10,50.6304733333333,-96.980775,7.8,9.5,175,992.25,14.6,62,17.21,0.0,1018.70,335.6
2019-09-09 02:20,50.6304733333333,-96.9807766666667,8.2,9.6,175,992.18,14.4,63,17.21,0.0,1018.64,335.6
2019-09-09 02:30,50.6304716666667,-96.98078,8.2,10.0,179,992.24,14.2,64,17.21,0.0,1018.71,335.6
2019-09-09 02:40,50.63047,-96.9807783333333,8.8,11.0,177,992.26,14.0,64,17.20,0.0,1018.74,335.6
2019-09-09 02:50,50.63045,-96.9807766666667,9.4,11.0,176,992.21,13.8,65,17.17,0.0,1018.71,335.6
2019-09-09 03:00,50.63046,-96.9807766666667,9.7,11.7,177,992.21,13.6,64,17.15,0.0,1018.73,90.0
2019-09-09 03:10,50.6304566666667,-96.980775,9.1,10.8,178,992.28,13.5,64,17.12,0.0,1018.82,90.0
2019-09-09 03:20,50.6304566666667,-96.9807766666667,9.0,10.9,179,992.38,13.3,65,17.10,0.0,1018.95,90.0
2019-09-09 03:30,50.6304566666667,-96.9807766666667,8.4,9.7,180,992.46,13.2,65,17.08,0.0,1019.05,90.0
2019-09-09 03:40,50.6304566666667,-96.980775,8.3,10.3,180,992.60,13.2,65,17.07,0.0,1019.21,90.0
2019-09-09 03:50,50.6304583333333,-96.980775,9.0,11.2,181,992.65,13.1,65,17.06,0.0,1019.27,90.0
2019-09-09 04:00,50.63046,-96.980775,9.4,11.7,179,992.78,13.1,65,17.04,0.0,1019.42,0.0
2019-09-09 04:10,50.6304583333333,-96.9807766666667,9.6,11.7,177,992.83,13.0,65,17.03,0.0,1019.48,0.0
2019-09-09 04:20,50.63046,-96.9807766666667,9.8,11.6,176,992.85,12.9,66,17.02,0.0,1019.52,0.0
2019-09-09 04:30,50.6304583333333,-96.9807783333333,9.9,11.9,177,992.83,12.7,66,17.01,0.0,1019.51,0.0
2019-09-09 04:40,50.6304683333333,-96.9808016666667,9.3,12.4,176,992.86,12.7,68,17.00,0.0,1019.56,0.0
2019-09-09 04:50,50.6304616666667,-96.9807833333333,8.6,11.3,175,992.85,12.5,68,16.99,0.0,1019.56,0.0
2019-09-09 05:00,50.6304666666667,-96.9807883333333,8.0,9.5,175,992.81,12.3,69,16.99,0.0,1019.54,152.4
2019-09-09 05:10,50.6304583333333,-96.980765,8.4,10.2,177,992.86,12.4,70,16.98,0.0,1019.59,152.4
2019-09-09 05:20,50.63046,-96.9807833333333,8.6,10.8,177,992.97,12.4,70,16.99,0.0,1019.71,152.4
2019-09-09 05:30,50.6304633333333,-96.9807816666667,6.9,8.5,181,993.05,12.2,72,16.98,0.0,1019.80,152.4
2019-09-09 05:40,50.6304633333333,-96.9807783333333,6.8,8.5,187,993.16,12.1,72,16.97,0.0,1019.92,152.4
2019-09-09 05:50,50.6304616666667,-96.9807766666667,6.6,8.3,193,993.21,11.9,71,16.95,0.0,1019.99,152.4
2019-09-09 06:00,50.6304566666667,-96.9807633333333,6.0,7.6,197,993.32,11.7,72,16.94,0.0,1020.11,167.4
2019-09-09 06:10,50.6304616666667,-96.9807633333333,5.4,7.3,203,993.50,11.4,73,16.94,0.0,1020.31,167.4
2019-09-09 06:20,50.63047,-96.9807566666667,3.9,5.5,201,993.55,11.2,74,16.93,0.0,1020.38,167.4
2019-09-09 06:30,50.630465,-96.98078,3.5,5.2,214,993.51,10.8,76,16.92,0.0,1020.36,167.4
2019-09-09 06:40,50.630465,-96.9807783333333,3.6,4.7,216,993.48,10.3,77,16.91,0.0,1020.36,167.4
2019-09-09 06:50,50.6304666666667,-96.9807766666667,3.7,5.3,203,993.46,10.3,78,16.91,0.0,1020.35,167.4
2019-09-09 07:00,50.630465,-96.9807616666667,3.6,4.8,186,993.44,10.5,79,16.90,0.0,1020.32,36.6
2019-09-09 07:10,50.6304633333333,-96.98077,4.8,6.8,175,993.47,10.5,79,16.90,0.0,1020.35,36.6
2019-09-09 07:20,50.6304633333333,-96.98077,4.9,6.6,184,993.40,10.2,81,16.90,0.0,1020.30,36.6
2019-09-09 07:30,50.63045,-96.9807616666667,4.1,5.8,194,993.36,10.2,81,16.91,0.0,1020.27,36.6
2019-09-09 07:40,50.6304616666667,-96.9807783333333,3.5,4.5,205,993.35,10.1,82,16.93,0.0,1020.26,36.6
2019-09-09 07:50,50.630465,-96.9807816666667,3.2,4.5,207,993.32,10.2,82,16.95,0.0,1020.24,36.6
2019-09-09 08:00,50.6304616666667,-96.9807783333333,2.7,3.6,211,993.31,10.0,82,16.95,0.0,1020.25,131.7
2019-09-09 08:10,50.630465,-96.98078,2.6,4.2,206,993.24,9.8,83,16.94,0.0,1020.20,131.7
2019-09-09 08:20,50.6304633333333,-96.9807766666667,3.3,4.6,204,993.21,9.9,83,16.93,0.0,1020.19,131.7
2019-09-09 08:30,50.6304633333333,-96.980775,2.8,4.3,202,993.07,10.1,82,16.92,0.0,1020.06,131.7
2019-09-09 08:40,50.6304633333333,-96.980775,2.8,4.0,195,992.86,10.4,81,16.92,0.0,1019.83,131.7
2019-09-09 08:50,50.6304533333333,-96.9807466666667,2.1,3.8,186,992.72,10.5,82,16.92,0.0,1019.67,131.7
2019-09-09 09:00,50.63045,-96.9807516666667,2.3,3.7,181,992.56,10.8,81,16.92,0.0,1019.49,90.0
2019-09-09 09:10,50.63046,-96.9807866666667,2.0,3.4,183,992.50,10.9,83,16.93,0.0,1019.44,90.0
2019-09-09 09:20,50.6304633333333,-96.9807666666667,1.7,2.9,195,992.50,10.9,84,16.94,0.0,1019.44,90.0
2019-09-09 09:30,50.6304583333333,-96.9807766666667,1.5,2.4,204,992.52,10.6,85,16.95,0.0,1019.47,90.0
2019-09-09 09:40,50.6304583333333,-96.9807783333333,0.6,1.4,209,992.45,10.3,87,16.95,0.0,1019.42,90.0
2019-09-09 09:50,50.63046,-96.9807766666667,1.8,2.4,211,992.63,10.2,87,16.95,0.0,1019.62,90.0
2019-09-09 10:00,50.63046,-96.9807733333333,1.8,2.5,208,992.62,10.0,87,16.94,0.0,1019.63,216.6
2019-09-09 10:10,50.63046,-96.98077,2.0,3.0,205,992.64,10.0,87,16.92,0.0,1019.64,216.6
2019-09-09 10:20,50.63046,-96.98077,2.3,3.8,197,992.67,10.0,92,16.91,0.0,1019.66,216.6
2019-09-09 10:30,50.6304583333333,-96.9807683333333,1.4,2.7,207,992.52,10.0,92,16.91,0.0,1019.49,216.6
2019-09-09 10:40,50.6304583333333,-96.9807683333333,1.2,2.7,195,992.46,9.9,94,16.90,0.0,1019.43,216.6
2019-09-09 10:50,50.6304583333333,-96.98077,1.7,2.9,190,992.46,10.1,97,16.91,0.0,1019.40,216.6
2019-09-09 11:00,50.6304583333333,-96.98077,1.0,4.5,173,992.35,10.5,98,16.91,0.0,1019.28,113.6
2019-09-09 11:10,50.6304583333333,-96.9807716666667,2.8,8.6,167,992.50,10.8,98,16.90,0.0,1019.41,113.6
2019-09-09 11:20,50.6304583333333,-96.9807716666667,9.2,11.5,141,992.55,12.1,91,16.90,0.0,1019.41,113.6
2019-09-09 11:30,50.6304583333333,-96.9807733333333,9.8,13.1,153,992.69,12.6,87,16.89,0.0,1019.55,113.6
2019-09-09 11:40,50.6304583333333,-96.9807733333333,8.2,12.0,151,992.57,12.6,88,16.87,0.0,1019.43,113.6
2019-09-09 11:50,50.6304583333333,-96.9807733333333,8.1,11.1,141,992.46,12.7,89,16.87,0.0,1019.32,113.6
2019-09-09 12:00,50.6304583333333,-96.9807716666667,8.3,12.0,137,992.33,13.0,87,16.86,0.0,1019.17,291.5
2019-09-09 12:10,50.6304583333333,-96.9807716666667,10.0,11.9,138,992.33,13.1,86,16.85,0.0,1019.17,291.5
2019-09-09 12:20,50.6304583333333,-96.9807733333333,9.1,11.0,144,992.39,12.9,85,16.84,0.0,1019.24,291.5
2019-09-09 12:30,50.6304583333333,-96.9807716666667,10.0,12.6,144,992.35,12.8,85,16.83,0.0,1019.21,291.5
2019-09-09 12:40,50.6304583333333,-96.9807716666667,10.3,12.2,142,992.40,12.8,87,16.83,0.0,1019.25,291.5
2019-09-09 12:50,50.63046,-96.9807716666667,9.0,11.4,136,992.34,12.8,88,16.81,0.0,1019.17,291.5
2019-09-09 13:00,50.6304616666667,-96.9807683333333,8.7,10.9,130,992.22,13.0,89,16.80,0.0,1019.02,12.6
2019-09-09 13:10,50.6304583333333,-96.9807666666667,9.2,11.5,135,992.14,12.8,89,16.78,0.0,1018.90,12.6
2019-09-09 13:20,50.6304566666667,-96.9807683333333,9.4,11.8,130,992.24,13.0,91,16.76,0.0,1018.96,12.6
2019-09-09 13:30,50.6304566666667,-96.9807716666667,9.2,11.3,124,992.23,13.1,92,16.75,0.0,1018.94,12.6
2019-09-09 13:40,50.6304566666667,-96.9807733333333,8.7,11.3,131,992.22,12.7,92,16.74,0.0,1018.95,12.6
2019-09-09 13:50,50.6304583333333,-96.9807733333333,9.1,11.3,134,992.30,12.6,92,16.73,0.0,1019.02,12.6
2019-09-09 14:00,50.6304583333333,-96.980775,9.8,12.5,132,992.35,12.7,93,16.73,0.0,1019.06,270.0
2019-09-09 14:10,50.6304583333333,-96.9807766666667,9.5,13.0,127,992.46,12.8,93,16.72,0.0,1019.18,270.0
2019-09-09 14:20,50.6304566666667,-96.9807766666667,10.6,12.4,125,992.58,12.9,94,16.72,0.0,1019.30,270.0
2019-09-09 14:30,50.6304533333333,-96.980785,9.9,12.6,135,992.65,12.5,93,16.72,0.0,1019.40,270.0
2019-09-09 14:40,50.63044,-96.9807666666667,9.6,11.8,131,992.60,12.8,92,16.72,0.0,1019.33,270.0
2019-09-09 14:50,50.6304416666667,-96.9807766666667,9.4,12.8,129,992.56,13.0,94,16.72,0.0,1019.27,270.0
2019-09-09 15:00,50.6304733333333,-96.9807766666667,9.7,12.6,122,992.50,13.1,94,16.71,0.0,1019.21,18.9
2019-09-09 15:10,50.630465,-96.9807816666667,10.1,12.9,122,992.44,13.2,93,16.70,0.0,1019.13,18.9
2019-09-09 15:20,50.63047,-96.9807866666667,10.7,13.4,121,992.42,13.3,91,16.70,0.0,1019.11,18.9
2019-09-09 15:30,50.630465,-96.98079,9.6,12.7,134,992.39,13.1,89,16.71,0.0,1019.11,18.9
2019-09-09 15:40,50.63046,-96.9807883333333,10.3,12.4,125,992.24,13.6,90,16.72,0.0,1018.93,18.9
2019-09-09 15:50,50.63046,-96.9807883333333,10.6,13.0,127,992.20,13.6,89,16.72,0.0,1018.88,18.9
2019-09-09 16:00,50.630465,-96.9807883333333,9.6,12.8,123,992.04,13.9,88,16.73,0.0,1018.70,286.8
2019-09-09 16:10,50.6304716666667,-96.9807633333333,9.2,11.1,117,991.85,14.3,88,16.73,0.0,1018.49,286.8
2019-09-09 16:20,50.630465,-96.980775,8.4,10.7,111,991.64,14.3,88,16.73,0.0,1018.28,286.8
2019-09-09 16:30,50.6304433333333,-96.9807866666667,10.1,12.1,106,991.48,14.7,86,16.75,0.0,1018.10,286.8
2019-09-09 16:40,50.6304483333333,-96.9807866666667,10.1,13.3,99,991.34,15.4,81,16.76,0.0,1017.91,286.8
2019-09-09 16:50,50.6304533333333,-96.9807733333333,10.8,13.5,104,991.28,15.6,80,16.78,0.0,1017.82,286.8
2019-09-09 17:00,50.6304566666667,-96.9807883333333,9.2,11.7,96,991.24,15.9,77,16.79,0.0,1017.76,246.4
2019-09-09 17:10,50.630465,-96.9807866666667,9.2,12.0,95,991.28,16.2,76,16.79,0.0,1017.79,246.4
2019-09-09 17:20,50.6304566666667,-96.9807733333333,8.6,11.0,101,991.31,16.3,76,16.79,0.0,1017.83,246.4
2019-09-09 17:30,50.63046,-96.9807933333333,7.9,11.0,93,991.08,16.4,74,16.80,0.0,1017.56,246.4
2019-09-09 17:40,50.6304466666667,-96.9808183333333,9.2,12.0,83,990.81,16.3,74,16.84,0.0,1017.29,246.4
2019-09-09 17:50,50.630445,-96.980805,9.5,11.2,81,990.57,16.0,74,16.87,0.0,1017.04,246.4
2019-09-09 18:00,50.6304483333333,-96.9807933333333,10.0,14.7,93,990.59,16.4,70,16.88,0.0,1017.03,213.7
2019-09-09 18:10,50.63045,-96.9807716666667,13.6,16.5,98,990.69,16.6,66,16.88,0.0,1017.12,213.7
2019-09-09 18:20,50.63045,-96.9807866666667,14.0,17.4,98,990.72,16.7,65,16.87,0.0,1017.12,213.7
2019-09-09 18:30,50.6304516666667,-96.9807783333333,15.2,17.8,99,990.83,16.9,64,16.86,0.0,1017.20,213.7
2019-09-09 18:40,50.630455,-96.98078,16.1,19.5,98,990.83,17.0,62,16.84,0.0,1017.19,213.7
2019-09-09 18:50,50.6304533333333,-96.9807816666667,16.4,19.4,104,990.77,17.0,61,16.83,0.0,1017.10,213.7
2019-09-09 19:00,50.6304566666667,-96.9807816666667,13.9,18.2,96,990.68,17.1,61,16.87,0.0,1016.99,360.0
2019-09-09 19:10,50.6304566666667,-96.9807816666667,12.0,14.9,91,990.46,17.1,63,16.88,0.0,1016.77,360.0
2019-09-09 19:20,50.6304583333333,-96.9807833333333,11.9,15.8,86,990.22,17.0,63,16.90,0.0,1016.53,360.0
2019-09-09 19:30,50.6304333333333,-96.98077,11.9,14.7,87,990.01,16.9,62,16.91,0.0,1016.31,360.0
2019-09-09 19:40,50.6304616666667,-96.9808083333333,12.5,15.3,90,989.73,17.1,60,16.92,0.0,1016.03,360.0
2019-09-09 19:50,50.6304633333333,-96.9807833333333,13.2,16.9,83,989.49,17.0,60,16.92,0.0,1015.77,360.0
2019-09-09 20:00,50.63046,-96.9807866666667,13.5,16.3,84,989.34,17.0,59,16.90,0.0,1015.61,360.0
2019-09-09 20:10,50.6304566666667,-96.980785,13.4,16.6,85,989.27,17.0,59,16.88,0.0,1015.53,360.0
2019-09-09 20:20,50.6304566666667,-96.980785,12.7,16.8,86,989.24,17.0,61,16.86,0.0,1015.49,360.0
2019-09-09 20:30,50.6304533333333,-96.9807816666667,12.3,17.7,83,989.18,16.9,62,16.86,0.0,1015.42,360.0
2019-09-09 20:40,50.6304533333333,-96.9807816666667,11.7,15.3,85,989.11,16.9,62,16.88,0.0,1015.36,360.0
2019-09-09 20:50,50.6304533333333,-96.9807816666667,12.7,17.0,83,988.98,16.9,63,16.89,0.0,1015.22,360.0
2019-09-09 21:00,50.6304616666667,-96.98077,15.0,17.8,77,988.85,16.7,63,16.90,0.0,1015.09,50.9
2019-09-09 21:10,50.630455,-96.98078,15.2,17.3,77,988.87,16.6,62,16.91,0.0,1015.12,50.9
2019-09-09 21:20,50.630455,-96.980795,15.1,17.4,77,988.82,16.6,61,16.91,0.0,1015.08,50.9
2019-09-09 21:30,50.630455,-96.980795,15.2,17.9,78,988.85,16.6,61,16.91,0.0,1015.10,50.9
2019-09-09 21:40,50.6304533333333,-96.9807933333333,15.7,18.0,75,988.67,16.5,62,16.91,0.0,1014.92,50.9
2019-09-09 21:50,50.6304516666667,-96.9807883333333,14.4,18.4,80,988.60,16.6,63,16.91,0.0,1014.85,50.9
2019-09-09 22:00,50.6304533333333,-96.9807883333333,15.3,18.3,78,988.46,16.6,62,16.90,0.0,1014.70,270.0
2019-09-09 22:10,50.630455,-96.9807866666667,15.5,18.7,76,988.28,16.6,63,16.89,0.0,1014.52,270.0
2019-09-09 22:20,50.63044,-96.9807816666667,14.7,17.7,76,988.26,16.6,62,16.88,0.0,1014.50,270.0
2019-09-09 22:30,50.6304466666667,-96.9807766666667,15.1,19.0,68,988.12,16.5,64,16.88,0.0,1014.36,270.0
2019-09-09 22:40,50.6304516666667,-96.980785,16.9,19.9,70,988.05,16.5,63,16.88,0.0,1014.29,270.0
2019-09-09 22:50,50.63045,-96.980785,17.4,20.3,69,987.94,16.5,63,16.89,0.0,1014.19,270.0
2019-09-09 23:00,50.6304516666667,-96.9807866666667,17.7,20.4,69,987.80,16.5,64,16.88,0.0,1014.05,142.0
2019-09-09 23:10,50.6304616666667,-96.9807816666667,17.6,21.3,71,987.77,16.4,64,16.86,0.0,1014.02,142.0
2019-09-09 23:20,50.6304616666667,-96.9807883333333,17.4,19.9,69,987.67,16.3,64,16.84,0.0,1013.92,142.0
2019-09-09 23:30,50.63046,-96.9807883333333,16.6,19.6,72,987.71,16.2,65,16.83,0.0,1013.98,142.0
2019-09-09 23:40,50.6304516666667,-96.9807583333333,17.9,21.1,70,987.62,16.2,65,16.82,0.0,1013.88,142.0
